Location: Unspecified
(0.0000°N, 0.0000°E)
Time: 21:35:34
(UTC+01:00)

ATLAS 2AS CENTAUR R/B - Visible Passes

Search period start: 22 December 2014 00:00
Search period end: 01 January 2015 00:00
Orbit: 915 x 1297 km, 63.7° (Epoch: 16 December)

Date Brightness Start Highest point End Pass type
(mag) Time Alt. Az. Time Alt. Az. Time Alt. Az.
22 Dec 5.1 20:42:44 10° WNW 20:48:27 24° WSW 20:53:52 10° SSW visible
23 Dec 5.2 06:29:00 10° SSE 06:34:08 26° ESE 06:39:33 10° ENE visible
23 Dec 4.1 19:56:42 10° NW 20:03:51 44° WSW 20:10:28 10° S visible
24 Dec 6.0 05:47:08 10° SE 05:49:31 12° ESE 05:51:57 10° E visible
25 Dec 5.8 20:20:57 10° WNW 20:25:05 16° WSW 20:29:03 10° SSW visible
26 Dec 4.2 06:04:54 10° S 06:10:43 38° ESE 06:16:58 10° NE visible
26 Dec 5.0 19:34:01 10° NW 19:40:27 30° WSW 19:46:28 10° S visible
27 Dec 5.2 05:21:45 10° SSE 05:26:08 19° ESE 05:30:43 10° ENE visible
28 Dec 2.6 06:25:33 10° SSW 06:31:55 77° WNW 06:38:54 10° NNE visible
29 Dec 3.3 05:41:05 10° S 05:47:18 57° ESE 05:54:04 10° NE visible
30 Dec 4.4 04:57:20 10° S 05:02:43 29° ESE 05:08:28 10° NE visible
31 Dec 5.3 04:14:52 10° SE 04:18:07 14° ESE 04:21:29 10° E visible
31 Dec 2.7 06:02:22 10° SW 06:08:34 52° WNW 06:15:21 10° N visible
